Regional Weather Roundup
Issued by NWS

Home | Current Version | Previous Version | Text Only | Print | Product List | Glossary On
Versions: 1 2 3 4 5 6 7 8 9 10 11 12 13 14 15 16 17 18 19 20 21 22 23 24 25 26 27 28 29 30 31 32 33 34 35 36 37 38 39 40 41 42 43 44 45 46 47 48 49 50
000
ASCA42 TJSJ 240611
RWRPR
PUERTO RICO/U.S. VIRGIN ISLANDS HOURLY WEATHER ROUNDUP
NATIONAL WEATHER SERVICE SAN JUAN PR
200 AM AST THU JUL 24 2014

PRZ001-004-240700-
PUERTO RICO

CITY           SKY/WX    TMP DP  RH WIND       PRES   REMARKS
SAN JUAN LMM   PTCLDY    82  75  78 E12       30.04F
PONCE          PTCLDY    81  72  74 E6        30.00
AGUADILLA      MOCLDY    79  73  83 SE5       30.05F
CEIBA          CLOUDY    82  75  78 NE9       30.06F
$$

PRZ006-007-240700-
U.S. VIRGIN ISLANDS

CITY           SKY/WX    TMP DP  RH WIND       PRES   REMARKS
CHARLOTTE AMA  CLOUDY    82  75  78 E13       30.03F
CHRISTIANSTED  CLOUDY    81  73  78 E13       30.03F
$$

HOURLY WEATHER ROUNDUP FOR THE NEWS MEDIA

CITY           SKY/WX    TMP DP  RH WIND       PRES   REMARKS
MIAMI          PTCLDY    82  75  79 SE5       30.03F
ORLANDO        CLEAR     80  78  94 S5        30.02F
NEW YORK       CLOUDY    77  70  79 NW9       29.80S
NEWARK         MOCLDY    75  70  84 W6        29.82R
CHICAGO        CLEAR     59  49  69 N6        30.14F
HARTFORD       CLOUDY    71  69  93 SW7       29.76S
BOSTON         CLOUDY    73  67  81 NW5       29.76R
DALLAS         CLOUDY    76  68  76 W6        30.01F
PHILADELPHIA   CLOUDY    75  67  76 N3        29.86R



USA.gov is the U.S. government's official web portal to all federal, state and local government web resources and services.